Showing default

KUIPER-00317, 68600

Orbit data source: Space-Track

KUIPER-00317, 68600 is a payload satellite owned by Kuiper Systems (US) in LEO that was launched on Sat, 04 Apr 2026 UTC via an ATLAS V 551 launch vehicle from the Air Force Eastern Test Range (AFETR). Payload-class satellites include a variety of spacecraft equipped with specific instruments for various scientific and technological missions. These include communications satellites like Starlink; space stations such as the ISS; scientific satellites like the Hubble; Earth observation satellites from companies like Planet Labs, Umbra, and HawkEye 360; GPS; miniature CubeSats for education and research; and military/defense satellites.

Loading next visibility...
Identifier
68600, 2026-072AD
Orbit
LEO
Country
Flag of USUS
Related business
Manufacturer
Kuiper Systems
Mission
Operational spacecraft
Bus & Motor
KUIPER, Unknown motor
Mass
~490 kg wet, ~490 kg dry
Launch date (UTC)
2026-04-04 (2 months ago)
Launch vehicle
ATLAS V 551
Launch site
Air Force Eastern Test Range (AFETR)
Object type
Payload
Rocket body
Debris
Shape & HBR
Unknown shape, 3.4 m
Radar Cross Section
Large (>1 m²)

Expand to show TLE details & history
Last TLE update: 22 hours ago

TLE from 22 hours ago
0 KUIPER-00317
1 68600U 26072AD  26149.69706289  .00023532  00000-0  63190-3 0  9993
2 68600  51.8697 266.4765 0009493 314.8874  45.1341 15.37777344  8536
Epoch: 2026-05-29T16:43Z
TLE epoch observation values (Epoch: 2026-05-29T16:43:46.233Z)
Latitude
-0.00006°
Longitude
128.31009°
Altitude
448.875 km
Speed
7.647 km/s
True Right ascension
17h 45m 54s
True Declination
0° 00' 00"
Sunlit
Object was in full shadow at epoch
Visualization orbit readout
Latitude
Unknown
Longitude
Unknown
Altitude
Unknown
Speed
Unknown
Apparent Right ascension
Unknown
Apparent Declination
Unknown
Sunlit
N/A
Visualization observer readout
Local Sidereal Time
00:43:46
Azimuth
Unknown
Elevation
Unknown
Doppler factor
Unknown
Orbital elements
Apogee altitude
459.636 km
Perigee altitude
446.666 km
Semi-major axis
6,831.288 km
Eccentricity
0.00095
Inclination
51.8697°
RAAN
266.4765°
Arg. of periapsis
314.8874°
True anomaly
45.21126°
Mean anomaly
45.1341°
Eccentric anomaly
45.17268°
Mean motion
3.84405 °/min
Orbital period
93.65 mins
BSTAR
0.0006319
Loading maneuver chart data...
Computing Atmospheric mass density...
Loading historical data...
Loading historical data...
Loading historical data...
Loading historical data...
Loading historical data...
Loading historical data...
Loading historical data...

Documentation

Showing up to 5 results
|